[[{"header":{"parameterUnit":"m.s-1","parameterCategory":1,"la1":30.2991,"la2":30.254,"lo1":-89.0895,"lo2":-89.0444,"dy":0.0017,"dx":0.0017,"nx":28,"ny":28,"refTime":"2023-11-14T09:00:00:Z","depth":0,"parameterNumber":2,"parameterNumberName":"U-component_of_WINDS"},"data":[0,0,0,0,0,0,0,0,0,0,0,0,0,0,0,0,0,0,0,0,0,0,0,0,0,0,0,0,0,0,0,0,0,0,0,0,0,0,0,0,0,0,0,0,0,0,0,0,0,0,0,0,0,0,0,0,0,0,-8.7548,-8.7549,0,-8.7678,-8.7679,-8.7681,-8.7543,-8.7537,-8.7532,-8.7527,-8.7654,-8.7662,-8.767,0,0,0,0,0,0,0,0,0,0,0,0,0,-8.7174,-8.7182,-8.7547,-8.7549,-8.7551,-8.7677,-8.7679,-8.7681,-8.7543,-8.7537,-8.7531,-8.7525,-8.7651,-8.7661,-8.7671,0,0,0,0,0,0,0,0,0,0,0,0,0,-8.7323,-8.7184,-8.7547,-8.7498,-8.7494,-8.7677,-8.7679,-8.7681,-8.7545,-8.7537,-8.7529,-8.7521,-8.7648,-8.766,-8.7672,-8.7908,0,0,-8.771,-8.7716,0,0,0,0,0,0,0,0,-8.7315,-8.7337,-8.7503,-8.7501,-8.7498,-8.7586,-8.7594,-8.7757,-8.7547,-8.7526,-8.7527,-8.7518,-8.7637,-8.765,-8.7692,-8.7914,-8.7919,-8.7711,-8.7719,-8.7724,-8.7728,0,0,0,0,0,0,0,-8.7305,-8.7331,-8.7599,-8.7506,-8.7503,-8.7467,-8.7479,-8.7624,-8.7624,-8.7527,-8.7517,-8.7535,-8.7634,-8.768,-8.7694,-8.7921,-8.7711,-8.7722,-8.773,-8.7735,-8.8341,-8.835,0,0,0,0,0,0,-8.7301,-8.7323,-8.7594,-8.7603,-8.7385,-8.748,-8.7494,-8.7566,-8.7622,-8.7623,-8.7541,-8.7528,-8.7663,-8.7679,-8.7698,-8.7975,-8.7724,-8.7736,-8.7743,-8.8333,-8.8343,-8.8353,0,0,0,0,0,0,-8.7293,-8.7326,-8.7589,-8.746,-8.7491,-8.7495,-8.7577,-8.7572,-8.7618,-8.7633,-8.7632,-8.7589,-8.7657,-8.768,-8.7857,-8.7978,-8.7742,-8.7753,-8.8323,-8.8336,-8.8348,-8.8535,0,0,0,0,0,0,-8.7283,-8.7325,-8.7416,-8.7464,-8.7499,-8.7749,-8.7584,-8.7581,-8.7641,-8.7624,-8.7677,-8.7678,-8.7653,-8.7839,-8.7869,-8.7991,-8.7763,-8.8312,-8.8329,-8.8344,-8.8517,-8.8552,-8.8582,0,0,0,0,0,-8.727,-8.7462,-8.7421,-8.7455,-8.7613,-8.7756,-8.7776,-8.7744,-8.7651,-8.7741,-8.7751,-8.7677,-8.7961,-8.7858,-8.7891,-8.8018,-8.8304,-8.8324,-8.8343,-8.8503,-8.8545,-8.8581,0,0,0,0,0,0,-8.7426,-8.7467,-8.7422,-8.7636,-8.7694,-8.7733,-8.7845,-8.779,-8.7874,-8.7855,-8.781,-8.7823,-8.8011,-8.8032,-8.7918,-8.8248,-8.8117,-8.8144,-8.8227,-8.8268,-8.8299,-8.8289,-8.7773,0,0,0,0,0,-8.7486,-8.7601,-8.763,-8.7815,-8.7847,-8.7842,-8.7903,-8.7874,-8.7931,-8.7954,-8.7977,-8.8034,-8.8135,-8.8203,-8.8298,-8.8521,-8.8529,-8.8625,-8.8657,-8.8683,-8.8706,-8.8823,-8.8865,-8.8417,-8.8416,-8.8416,0,0,-8.7609,-8.7646,-8.772,-8.7847,-8.7889,-8.8006,-8.7863,-8.7994,-8.808,-8.7973,-8.8141,-8.8161,-8.8221,-8.8422,-8.8511,-8.8445,-8.8832,-8.8708,-8.8729,-8.8737,-8.8847,-8.889,-8.8928,-8.843,-8.8427,-8.8425,0,0,-8.7893,-8.7934,-8.8092,-8.8137,-8.8203,-8.8198,-8.8237,-8.8285,-8.8293,-8.8462,-8.8384,-8.8485,-8.8662,-8.8708,-8.8754,-8.9057,-8.899,-8.9089,-8.9256,-8.9371,-8.9406,-8.9437,-8.9542,-8.9581,-8.9113,-8.9113,-8.9113,0,-8.8036,-8.8213,-8.8179,-8.8316,-8.8373,-8.8285,-8.8443,-8.8488,-8.858,-8.862,-8.8547,-8.8766,-8.8801,-8.901,-8.9084,-8.9125,-8.9165,-8.9081,-8.9405,-8.9435,-8.9464,-8.9563,-8.9603,-8.9124,-8.9123,-8.9122,-8.9121,0,-8.8386,-8.8509,-8.8629,-8.8722,-8.8793,-8.894,-8.8926,-8.9002,-8.8967,-8.897,-8.9142,-8.9181,-8.9281,-8.9329,-8.9295,-8.9533,-8.949,-8.9412,-8.9277,-8.9518,-8.9611,-8.9649,-8.9141,-8.9137,-8.9133,-8.913,0,0,-8.8768,-8.8843,-8.8887,-8.8928,-8.8995,-8.9088,-8.9231,-8.9331,-8.9395,-8.9462,-8.9578,-8.9731,-8.9658,-8.9711,-8.9682,-8.9784,-9.0018,-8.9692,-8.9693,-8.9749,-9.0279,-9.0335,-9.038,-8.9976,-8.9983,-8.9989,-9.0273,0,-8.9052,-8.9301,-8.9275,-8.951,-8.9622,-8.9541,-8.9665,-8.9718,-8.9725,-8.9819,-8.9826,-8.9933,-8.9832,-8.9863,-8.996,-8.9969,-9.0123,-8.9949,-9.008,-9.0085,-9.0064,-9.0429,-9.0488,-9.0754,-9.0309,-9.0315,-9.032,0,-8.9415,-8.9497,-8.9745,-8.9794,-8.984,-8.9952,-9.004,-9.0133,-9.0191,-9.0189,-9.0249,-9.0203,-9.0343,-9.0209,-9.04,-9.0282,-9.0334,-9.0347,-9.0357,-9.0364,-9.0214,-9.0443,-9.0838,-9.0877,-9.0377,-9.0372,-9.0368,0,-8.9665,-8.9838,-9.0008,-9.0046,-9.0108,-9.0188,-9.0217,-9.0268,-9.033,-9.0407,-9.0446,-9.0539,-9.0588,-9.066,-9.0639,-9.0544,-9.0834,-9.0699,-9.0833,-9.0833,-9.0894,-9.089,-9.13,-9.0935,-9.0934,-9.0933,-9.0933,0,-8.9982,-9.0136,-9.0121,-9.0226,-9.0395,-9.0364,-9.0531,-9.055,-9.0596,-9.07,-9.0636,-9.0735,-9.0703,-9.0799,-9.0784,-9.0942,-9.0966,-9.0966,-9.0959,-9.097,-9.0969,-9.1,-9.098,-9.0944,-9.0942,-9.094,-9.0938,0,-9.0289,-9.0286,-9.0465,-9.0511,-9.0525,-9.0648,-9.0685,-9.0782,-9.0785,-9.0918,-9.0947,-9.095,-9.1061,-9.1048,-9.1171,-9.116,-9.1357,-9.133,-9.1338,-9.133,-9.1463,-9.145,-9.1904,-9.1961,-9.1564,-9.1567,-9.1571,0,-9.0489,-9.0606,-9.0665,-9.0731,-9.0767,-9.0875,-9.0938,-9.0912,-9.0979,-9.1055,-9.1142,-9.1247,-9.1329,-9.1509,-9.1521,-9.1614,-9.1586,-9.174,-9.1599,-9.1606,-9.1584,-9.1576,-9.1585,-9.1766,-9.177,-9.1774,-9.1777,0,-9.0845,-9.0838,-9.0932,-9.1027,-9.1105,-9.1178,-9.1243,-9.1301,-9.1281,-9.136,-9.1473,-9.1538,-9.1664,-9.1768,-9.1857,-9.1883,-9.1826,-9.1822,-9.1857,-9.1866,-9.1864,-9.1863,-9.1409,-9.181,-9.1807,-9.1804,-9.1803,-9.1801,-9.1102,-9.1201,-9.1258,-9.1365,-9.1412,-9.1476,-9.1568,-9.1584,-9.1679,-9.1781,-9.176,-9.1887,-9.194,-9.2053,-9.209,-9.2187,-9.213,-9.2182,-9.2195,-9.2207,-9.2221,-9.1854,-9.2203,-9.2202,-9.2201,-9.2201,-9.22,0,-9.145,-9.1483,-9.1583,-9.1678,-9.1762,-9.1705,-9.1775,-9.1847,-9.1961,-9.2017,-9.21,-9.223,-9.233,-9.2352,-9.2447,-9.252,-9.2496,-9.2546,-9.2538,-9.2544,-9.2268,-9.2226,-9.2564,-9.2564,-9.2564,-9.2563,-9.2563,-9.2563,-9.1641,-9.1805,-9.1805,-9.1991,-9.2022,-9.2148,-9.2192,-9.2249,-9.2294,-9.2442,-9.2526,-9.2541,-9.2582,-9.268,-9.2769,-9.2772,-9.2808,-9.2868,-9.286,-9.2601,-9.2564,-9.2529,-9.2489,-9.2877,-9.2878,-9.3128,-9.3131,-9.3132]},{"header":{"parameterUnit":"m.s-1","parameterCategory":1,"la1":30.2991,"la2":30.254,"lo1":-89.0895,"lo2":-89.0444,"dy":0.0017,"dx":0.0017,"nx":28,"ny":28,"refTime":"2023-11-14T09:00:00:Z","depth":0,"parameterNumber":3,"parameterNumberName":"V-component_of_WINDS"},"data":[0,0,0,0,0,0,0,0,0,0,0,0,0,0,0,0,0,0,0,0,0,0,0,0,0,0,0,0,0,0,0,0,0,0,0,0,0,0,0,0,0,0,0,0,0,0,0,0,0,0,0,0,0,0,0,0,0,0,-3.2266,-3.2265,0,-3.2141,-3.214,-3.2138,-3.2134,-3.2136,-3.2137,-3.2139,-3.2002,-3.1997,-3.1992,0,0,0,0,0,0,0,0,0,0,0,0,0,-3.2491,-3.2487,-3.2266,-3.2265,-3.2263,-3.2141,-3.214,-3.2138,-3.2134,-3.2136,-3.2138,-3.214,-3.2003,-3.1997,-3.1991,0,0,0,0,0,0,0,0,0,0,0,0,0,-3.2382,-3.2486,-3.2266,-3.2247,-3.2244,-3.2142,-3.214,-3.2137,-3.2134,-3.2136,-3.2138,-3.2141,-3.2005,-3.1998,-3.199,-3.1897,0,0,-3.1967,-3.1964,0,0,0,0,0,0,0,0,-3.2388,-3.2374,-3.2251,-3.2248,-3.2244,-3.2156,-3.2169,-3.2056,-3.2133,-3.2175,-3.2139,-3.2142,-3.205,-3.2039,-3.201,-3.189,-3.1884,-3.1966,-3.1962,-3.1958,-3.1956,0,0,0,0,0,0,0,-3.2396,-3.2379,-3.2216,-3.2249,-3.2245,-3.2241,-3.2228,-3.2147,-3.2101,-3.2172,-3.2171,-3.2157,-3.2049,-3.2018,-3.2007,-3.1882,-3.1966,-3.196,-3.1955,-3.1952,-3.1673,-3.167,0,0,0,0,0,0,-3.2409,-3.2386,-3.222,-3.2213,-3.2324,-3.2235,-3.222,-3.2182,-3.2102,-3.2092,-3.2155,-3.2157,-3.203,-3.2016,-3.2002,-3.1882,-3.1958,-3.1951,-3.1947,-3.1676,-3.1672,-3.1669,0,0,0,0,0,0,-3.2414,-3.2394,-3.2225,-3.2299,-3.2277,-3.2229,-3.2185,-3.2178,-3.2147,-3.209,-3.208,-3.2132,-3.2031,-3.2013,-3.1922,-3.1877,-3.1948,-3.1941,-3.1679,-3.1675,-3.1671,-3.1644,0,0,0,0,0,0,-3.242,-3.2396,-3.2362,-3.2298,-3.2273,-3.215,-3.2183,-3.2174,-3.2135,-3.2136,-3.2066,-3.2056,-3.2031,-3.1934,-3.1915,-3.1868,-3.1935,-3.1683,-3.1677,-3.1672,-3.1649,-3.164,-3.1632,0,0,0,0,0,-3.2428,-3.2359,-3.2361,-3.2341,-3.2231,-3.2148,-3.2133,-3.2109,-3.2132,-3.2095,-3.2058,-3.2058,-3.1887,-3.1924,-3.1903,-3.1853,-3.1685,-3.1679,-3.1672,-3.1652,-3.1641,-3.1632,0,0,0,0,0,0,-3.2415,-3.235,-3.2351,-3.226,-3.221,-3.2148,-3.2101,-3.2099,-3.2039,-3.2042,-3.2012,-3.1996,-3.1904,-3.1871,-3.1914,-3.1756,-3.1788,-3.1777,-3.178,-3.1769,-3.1761,-3.1768,-3.1928,0,0,0,0,0,-3.2403,-3.2345,-3.229,-3.2214,-3.2189,-3.2149,-3.2113,-3.2099,-3.2044,-3.2022,-3.1978,-3.1922,-3.1855,-3.1812,-3.1747,-3.1646,-3.1627,-3.1601,-3.1593,-3.1586,-3.1575,-3.1512,-3.1498,-3.1648,-3.1648,-3.1649,0,0,-3.2374,-3.2332,-3.2296,-3.221,-3.217,-3.2105,-3.2131,-3.2063,-3.2013,-3.201,-3.1921,-3.1887,-3.1823,-3.1725,-3.168,-3.1694,-3.153,-3.1578,-3.1573,-3.1565,-3.1504,-3.149,-3.1477,-3.1644,-3.1645,-3.1645,0,0,-3.2288,-3.2253,-3.2183,-3.2143,-3.2082,-3.2056,-3.204,-3.1978,-3.1955,-3.1867,-3.1861,-3.1801,-3.1689,-3.1641,-3.1602,-3.1498,-3.1493,-3.1478,-3.1431,-3.137,-3.1358,-3.1348,-3.1303,-3.1289,-3.1468,-3.1468,-3.1468,0,-3.2259,-3.2165,-3.2147,-3.2078,-3.2038,-3.2036,-3.1962,-3.1923,-3.1843,-3.1814,-3.1833,-3.1688,-3.1646,-3.1533,-3.1508,-3.1479,-3.1454,-3.1483,-3.1363,-3.1352,-3.1341,-3.1298,-3.1283,-3.1466,-3.1467,-3.1467,-3.1467,0,-3.2129,-3.2064,-3.2015,-3.194,-3.1895,-3.1824,-3.1791,-3.1748,-3.1738,-3.1709,-3.1615,-3.1565,-3.1487,-3.1462,-3.1451,-3.1346,-3.1356,-3.137,-3.14,-3.1325,-3.1284,-3.1268,-3.1463,-3.1464,-3.1465,-3.1465,0,0,-3.2027,-3.1944,-3.1925,-3.1889,-3.1823,-3.1769,-3.1698,-3.1625,-3.1585,-3.1531,-3.1465,-3.137,-3.138,-3.1336,-3.1321,-3.1269,-3.1181,-3.1287,-3.1285,-3.1263,-3.1055,-3.104,-3.1022,-3.1181,-3.1178,-3.1176,-3.1058,0,-3.1928,-3.1802,-3.1783,-3.167,-3.1606,-3.1604,-3.154,-3.1489,-3.1461,-3.1399,-3.1367,-3.1297,-3.1321,-3.1293,-3.1242,-3.1203,-3.1138,-3.1212,-3.1113,-3.1109,-3.1121,-3.1001,-3.0986,-3.0876,-3.1042,-3.104,-3.1038,0,-3.1795,-3.1738,-3.1619,-3.1558,-3.153,-3.1473,-3.1403,-3.1347,-3.1289,-3.1271,-3.1222,-3.1212,-3.1132,-3.1172,-3.1057,-3.1108,-3.1067,-3.1042,-3.1037,-3.102,-3.1064,-3.0974,-3.0842,-3.0822,-3.1014,-3.1016,-3.1018,0,-3.1723,-3.1618,-3.1531,-3.1502,-3.143,-3.1389,-3.1357,-3.1301,-3.1258,-3.1196,-3.1166,-3.1096,-3.1055,-3.0999,-3.0968,-3.1001,-3.0853,-3.0892,-3.083,-3.083,-3.0793,-3.0794,-3.0644,-3.078,-3.078,-3.0781,-3.0781,0,-3.161,-3.1535,-3.1497,-3.1443,-3.1358,-3.1337,-3.1252,-3.1221,-3.1171,-3.1107,-3.1103,-3.1042,-3.101,-3.0943,-3.0919,-3.0824,-3.0808,-3.0786,-3.0779,-3.0782,-3.0783,-3.0749,-3.0752,-3.0776,-3.0777,-3.0778,-3.0779,0,-3.1512,-3.1485,-3.1389,-3.1331,-3.1314,-3.1253,-3.12,-3.1145,-3.1119,-3.1037,-3.1017,-3.0973,-3.0894,-3.086,-3.0763,-3.0747,-3.0635,-3.0638,-3.0655,-3.0651,-3.0588,-3.0591,-3.0403,-3.0374,-3.0537,-3.0536,-3.0535,0,-3.1438,-3.138,-3.1316,-3.1274,-3.1241,-3.1174,-3.113,-3.1108,-3.1061,-3.0989,-3.0941,-3.0864,-3.0799,-3.0673,-3.0629,-3.0553,-3.0549,-3.0489,-3.0537,-3.054,-3.0538,-3.0538,-3.0529,-3.0477,-3.0475,-3.0474,-3.0473,0,-3.1306,-3.1295,-3.1234,-3.1166,-3.1114,-3.1059,-3.1006,-3.0971,-3.0939,-3.0887,-3.0807,-3.0758,-3.0659,-3.0579,-3.0501,-3.0463,-3.0459,-3.046,-3.0439,-3.0437,-3.0446,-3.0432,-3.0622,-3.0462,-3.0463,-3.0464,-3.0464,-3.0465,-3.1212,-3.1159,-3.1104,-3.1034,-3.0992,-3.0942,-3.0886,-3.0853,-3.0787,-3.0706,-3.0698,-3.061,-3.055,-3.0445,-3.0405,-3.0333,-3.0347,-3.0321,-3.0312,-3.0304,-3.0295,-3.0465,-3.032,-3.032,-3.0321,-3.0321,-3.0321,0,-3.1073,-3.1038,-3.0975,-3.09,-3.0844,-3.0853,-3.0793,-3.0744,-3.0668,-3.0615,-3.0552,-3.0458,-3.0381,-3.0332,-3.0252,-3.0204,-3.02,-3.0183,-3.0181,-3.0171,-3.0292,-3.0313,-3.0187,-3.0187,-3.0187,-3.0187,-3.0187,-3.0187,-3.0993,-3.0901,-3.0885,-3.077,-3.0736,-3.0652,-3.0617,-3.0568,-3.0524,-3.0421,-3.0357,-3.0328,-3.0274,-3.019,-3.0117,-3.0105,-3.0071,-3.0052,-3.0039,-3.015,-3.0164,-3.0177,-3.0196,-3.0048,-3.0047,-2.9923,-2.9922,-2.9921]}]]